Simultaneous Nadir Overpasses (SNOs) Predictions

Prediction of SNOs between METOP-B and NOAA-19 Satellite Orbit:

Table of predicted SNOs for the next 14.0 days since TLE Epoch: 10/7/2023
Index Date (METOP-B) Time (METOP-B) Lat,Lon (METOP-B) SZA (METOP-B ) Date (NOAA-19) Time (NOAA-19) Lat,Lon (NOAA-19) SZA (NOAA-19 ) Distance(km) Time Diff (sec)
1 10/17/2023 13:52:19 80.76, 2.71 91.60 10/17/2023 13:51:06 80.76, 2.63 91.56 1.63 73
2 10/17/2023 14:43:00 -80.77, 170.11 88.38 10/17/2023 14:42:04 -80.76, 170.04 88.42 1.42 56
3 10/17/2023 15:33:40 80.77, -22.46 91.65 10/17/2023 15:33:04 80.76, -22.60 91.62 2.58 36
4 10/17/2023 16:24:21 -80.78, 144.94 88.33 10/17/2023 16:24:02 -80.77, 144.82 88.36 2.46 19
5 10/17/2023 17:15:01 80.78, -47.63 91.70 10/17/2023 17:15:01 80.78, -47.46 91.72 3.09 0
6 10/17/2023 18:05:43 -80.77, 119.43 88.33 10/17/2023 18:06:00 -80.78, 119.59 88.30 3.09 17
7 10/17/2023 18:56:22 80.79, -72.80 91.75 10/17/2023 18:56:59 80.79, -72.68 91.77 2.13 37
8 10/17/2023 19:47:03 -80.80, 94.61 88.23 10/17/2023 19:47:57 -80.80, 94.72 88.20 2.05 54



Historial Predications of SNOs between METOP-B and NOAA-19
